Flag for U.S.A. Weather past 2 weeks in Lakewood, Colorado, U.S.A.

Now
65 °F

Partly cloudy.


Feels Like: 65 °F
Forecast: 61 / 78 °F
Wind: 10 mph from South

Location: Centennial Airport

Current Time: Jul 1, 2015 at 10:34:26 PM

Latest Report: Jul 1, 2015 at 9:53 PM


Visibility: 10 mi

Pressure: 30.01 "Hg

Humidity: 76%

Dew point: 57 °F

Location of LakewoodLocation

Historic Weather in Lakewood — Graph

°F

Lakewood temperature yesterday

Maximum temperature yesterday: 90 °F (at 3:53 PM)
Minimum temperature yesterday: 59 °F (at 5:53 AM)
Average temperature yesterday: 75 °F

Past Weeks' High & Low Weather Summary

 TemperatureHumidityPressure
High91 °F (Jun 19, 2:53 PM)93% (Jun 17, 5:53 AM)30.30 "Hg (Jun 17, 5:53 AM)
Low54 °F (Jun 17, 5:53 AM)13% (Jun 19, 11:53 AM)29.70 "Hg (Jun 21, 6:53 PM)
Average72 °F52%29.97 "Hg
* Reported Jun 16 8:53 PM — Jul 1 8:53 PM, Lakewood, Weather by CustomWeather, © 2015

Note: Actual official high and low records may vary slightly from our data, if they occured in-between our weather recording intervals... More about our weather records

Advertising

Lakewood weather history for previous 24 hours

 ConditionsComfort  
Time TempWeatherWind HumidityBarometerVisibility
8:53 PM
Wed, Jul 1
66 °FScattered clouds.9 mph73%30.00 "Hg10 mi
7:53 PM69 °FBroken clouds.9 mph66%30.00 "Hg10 mi
6:53 PM72 °FBroken clouds.10 mph57%30.03 "Hg10 mi
5:53 PM73 °FBroken clouds.17 mph57%30.01 "Hg10 mi
4:53 PM74 °FCloudy.13 mph57%30.00 "Hg10 mi
3:53 PM78 °FBroken clouds.5 mph40%29.96 "Hg10 mi
2:53 PM82 °FBroken clouds.6 mph33%29.94 "Hg10 mi
1:53 PM86 °FBroken clouds.3 mph30%29.93 "Hg10 mi
12:53 PM84 °FScattered clouds.5 mph32%29.94 "Hg10 mi
11:53 AM82 °FPassing clouds.6 mph35%29.95 "Hg10 mi
10:53 AM79 °FScattered clouds.No wind44%29.96 "Hg10 mi
9:53 AM77 °FScattered clouds.6 mph45%29.97 "Hg10 mi
8:53 AM73 °FPartly sunny.6 mph48%29.97 "Hg10 mi
7:53 AM71 °FBroken clouds.9 mph47%29.95 "Hg10 mi
6:53 AM64 °FBroken clouds.No wind75%29.95 "Hg10 mi
5:53 AM62 °FPassing clouds.5 mph73%29.93 "Hg10 mi
4:53 AM65 °FPassing clouds.No wind63%29.90 "Hg10 mi
3:53 AM63 °FPassing clouds.7 mph70%29.89 "Hg10 mi
2:53 AM65 °FPassing clouds.5 mph68%29.90 "Hg10 mi
1:53 AM68 °FPassing clouds.3 mph61%29.90 "Hg10 mi
12:53 AM70 °FMostly cloudy.No wind55%29.92 "Hg10 mi
11:53 PM
Tue, Jun 30
73 °FMostly cloudy.5 mph46%29.94 "Hg10 mi
Weather by CustomWeather, © 2015

See weather overviewHow to use our weather pages